When you browse on this site, cookies collect data to enhance your experience and personalize the content and advertising you see.
Visit our Privacy Policy to learn more. By continuing to use the site, you agree to this use of cookies and data.
  • In Portugal
  • List of Countries
  • For 7 days
  • Water Temperature
  • Weather Map
  • Weather Widgets
  • user-avatar
    Login

    Hourly Weather Nuuk

    Today, 31 May, Sunday

    Time Temperature Precipitation Wind Pressure Humidity
    00:00 0°C° 0 mm 4 mps 754 mmHg 83%
    01:00 +1°C° 0 mm 3 mps 755 mmHg 83%
    02:00 +1°C° 0 mm 3 mps 755 mmHg 82%
    03:00 +1°C° 0 mm 3 mps 756 mmHg 81%
    04:00 +3°C° 0 mm 2 mps 756 mmHg 75%
    05:00 +4°C° 0 mm 2 mps 756 mmHg 70%
    06:00 +5°C° 0 mm 2 mps 756 mmHg 65%
    07:00 +5°C° 0 mm 2 mps 756 mmHg 62%
    08:00 +6°C° 0 mm 2 mps 757 mmHg 60%
    09:00 +6°C° 0 mm 2 mps 757 mmHg 57%
    10:00 +7°C° 0 mm 2 mps 757 mmHg 58%
    11:00 +7°C° 0 mm 2 mps 757 mmHg 58%
    12:00 +7°C° 0 mm 2 mps 757 mmHg 58%
    13:00 +7°C° 0 mm 2 mps 757 mmHg 60%
    14:00 +7°C° 0 mm 3 mps 757 mmHg 63%
    15:00 +7°C° 0 mm 3 mps 757 mmHg 65%
    16:00 +6°C° 0 mm 4 mps 758 mmHg 69%
    17:00 +5°C° 0 mm 4 mps 758 mmHg 73%
    18:00 +5°C° 0 mm 4 mps 758 mmHg 77%
    19:00 +4°C° 0 mm 4 mps 759 mmHg 81%
    20:00 +4°C° 0 mm 3 mps 759 mmHg 86%
    21:00 +4°C° 0 mm 3 mps 759 mmHg 90%
    22:00 +4°C° 0 mm 3 mps 760 mmHg 90%
    23:00 +4°C° 0 mm 2 mps 760 mmHg 91%

    Tomorrow, 1 June, Monday

    Time Temperature Precipitation Wind Pressure Humidity
    00:00 +4°C° 0 mm 2 mps 760 mmHg 91%
    01:00 +4°C° 0 mm 2 mps 760 mmHg 90%
    02:00 +6°C° 0 mm 1 mps 761 mmHg 90%
    03:00 +6°C° 0 mm 1 mps 761 mmHg 89%
    04:00 +5°C° 0 mm 2 mps 761 mmHg 85%
    05:00 +6°C° 0 mm 2 mps 761 mmHg 82%
    06:00 +6°C° 0 mm 2 mps 761 mmHg 78%
    07:00 +7°C° 0 mm 2 mps 761 mmHg 73%
    08:00 +8°C° 0 mm 2 mps 761 mmHg 68%
    09:00 +8°C° 0 mm 2 mps 761 mmHg 63%
    10:00 +9°C° 0 mm 2 mps 761 mmHg 60%
    11:00 +10°C° 0 mm 2 mps 760 mmHg 58%
    12:00 +11°C° 0 mm 1 mps 760 mmHg 55%
    13:00 +12°C° 0 mm 1 mps 760 mmHg 56%
    14:00 +12°C° 0 mm 1 mps 760 mmHg 56%
    15:00 +12°C° 0 mm 1 mps 760 mmHg 56%
    16:00 +10°C° 0.1 mm 3 mps 760 mmHg 65%
    17:00 +8°C° 0.1 mm 4 mps 759 mmHg 74%
    18:00 +7°C° 0.1 mm 6 mps 759 mmHg 83%
    19:00 +7°C° 0.1 mm 6 mps 759 mmHg 83%
    20:00 +7°C° 0.1 mm 6 mps 759 mmHg 83%
    21:00 +7°C° 0.1 mm 6 mps 759 mmHg 83%
    22:00 +7°C° 0.7 mm 6 mps 759 mmHg 85%
    23:00 +7°C° 0.7 mm 6 mps 759 mmHg 87%

    Day after tomorrow, 2 June, Tuesday

    Time Temperature Precipitation Wind Pressure Humidity
    00:00 +6°C° 0.7 mm 5 mps 758 mmHg 89%
    01:00 +6°C° 2.4 mm 5 mps 758 mmHg 91%
    02:00 +6°C° 2.4 mm 5 mps 758 mmHg 92%
    03:00 +6°C° 2.4 mm 5 mps 758 mmHg 94%
    04:00 +5°C° 1 mm 7 mps 758 mmHg 93%
    05:00 +6°C° 1 mm 9 mps 759 mmHg 92%
    06:00 +6°C° 1 mm 11 mps 760 mmHg 91%
    07:00 +6°C° 0.1 mm 11 mps 760 mmHg 89%
    08:00 +6°C° 0.1 mm 11 mps 761 mmHg 88%
    09:00 +6°C° 0.1 mm 11 mps 762 mmHg 86%
    10:00 +6°C° 0 mm 11 mps 762 mmHg 84%
    11:00 +6°C° 0 mm 11 mps 763 mmHg 82%
    12:00 +6°C° 0 mm 11 mps 763 mmHg 79%
    13:00 +6°C° 0 mm 11 mps 764 mmHg 80%
    14:00 +5°C° 0 mm 10 mps 765 mmHg 82%
    15:00 +5°C° 0 mm 10 mps 766 mmHg 83%
    16:00 +5°C° 0 mm 8 mps 766 mmHg 85%
    17:00 +4°C° 0 mm 7 mps 767 mmHg 86%
    18:00 +5°C° 0 mm 5 mps 767 mmHg 87%
    19:00 +4°C° 0 mm 4 mps 767 mmHg 88%
    20:00 +4°C° 0 mm 3 mps 768 mmHg 89%
    21:00 +5°C° 0 mm 2 mps 768 mmHg 90%
    22:00 +5°C° 0 mm 2 mps 768 mmHg 90%
    23:00 +5°C° 0 mm 1 mps 768 mmHg 91%

    3 June, Wednesday

    Time Temperature Precipitation Wind Pressure Humidity
    00:00 +5°C° 0 mm 1 mps 768 mmHg 91%
    01:00 +6°C° 0.1 mm 1 mps 768 mmHg 91%
    02:00 +6°C° 0.1 mm 1 mps 768 mmHg 90%
    03:00 +6°C° 0.1 mm 1 mps 769 mmHg 90%
    04:00 +6°C° 0.1 mm 1 mps 768 mmHg 90%
    05:00 +6°C° 0.1 mm 1 mps 768 mmHg 90%
    06:00 +6°C° 0.1 mm 1 mps 768 mmHg 90%
    07:00 +7°C° 0.3 mm 1 mps 768 mmHg 90%
    08:00 +6°C° 0.3 mm 2 mps 768 mmHg 90%
    09:00 +6°C° 0.3 mm 2 mps 768 mmHg 90%
    10:00 +6°C° 0.8 mm 2 mps 769 mmHg 90%
    11:00 +6°C° 0.8 mm 2 mps 769 mmHg 90%
    12:00 +6°C° 0.8 mm 2 mps 769 mmHg 90%
    13:00 +6°C° 0.7 mm 2 mps 769 mmHg 90%
    14:00 +5°C° 0.7 mm 3 mps 769 mmHg 90%
    15:00 +5°C° 0.7 mm 3 mps 769 mmHg 90%
    16:00 +5°C° 0.3 mm 3 mps 768 mmHg 89%
    17:00 +6°C° 0.3 mm 4 mps 768 mmHg 88%
    18:00 +6°C° 0.3 mm 4 mps 767 mmHg 87%
    19:00 +6°C° 0 mm 4 mps 767 mmHg 86%
    20:00 +6°C° 0 mm 4 mps 766 mmHg 85%
    21:00 +7°C° 0 mm 3 mps 766 mmHg 84%
    22:00 +7°C° 0 mm 3 mps 765 mmHg 84%
    23:00 +6°C° 0 mm 4 mps 765 mmHg 84%

    4 June, Thursday

    Time Temperature Precipitation Wind Pressure Humidity
    00:00 +6°C° 0 mm 4 mps 764 mmHg 84%
    01:00 +7°C° 0.1 mm 3 mps 764 mmHg 83%
    02:00 +7°C° 0.1 mm 3 mps 763 mmHg 83%
    03:00 +7°C° 0.1 mm 3 mps 762 mmHg 82%
    04:00 +7°C° 0.1 mm 3 mps 762 mmHg 83%
    05:00 +7°C° 0.1 mm 3 mps 761 mmHg 84%
    06:00 +8°C° 0.1 mm 3 mps 761 mmHg 85%
    07:00 +8°C° 0.3 mm 3 mps 760 mmHg 86%
    08:00 +8°C° 0.3 mm 2 mps 760 mmHg 87%
    09:00 +8°C° 0.3 mm 2 mps 760 mmHg 88%
    10:00 +8°C° 1.2 mm 2 mps 759 mmHg 91%
    11:00 +8°C° 1.2 mm 3 mps 759 mmHg 93%
    12:00 +8°C° 1.2 mm 3 mps 759 mmHg 95%
    13:00 +7°C° 0.7 mm 4 mps 760 mmHg 96%
    14:00 +7°C° 0.7 mm 5 mps 760 mmHg 96%
    15:00 +7°C° 0.7 mm 6 mps 760 mmHg 96%
    16:00 +6°C° 0 mm 7 mps 761 mmHg 91%
    17:00 +6°C° 0 mm 8 mps 761 mmHg 86%
    18:00 +7°C° 0 mm 8 mps 761 mmHg 81%
    19:00 +6°C° 0 mm 7 mps 762 mmHg 82%
    20:00 +7°C° 0 mm 5 mps 762 mmHg 83%
    21:00 +6°C° 0 mm 4 mps 762 mmHg 84%
    22:00 +6°C° 0 mm 4 mps 762 mmHg 86%
    23:00 +7°C° 0 mm 3 mps 762 mmHg 87%

    5 June, Friday

    Time Temperature Precipitation Wind Pressure Humidity
    00:00 +5°C° 0 mm 3 mps 762 mmHg 89%
    01:00 +5°C° 0 mm 3 mps 762 mmHg 89%
    02:00 +6°C° 0 mm 2 mps 762 mmHg 89%
    03:00 +6°C° 0 mm 2 mps 762 mmHg 89%
    04:00 +7°C° 0.1 mm 2 mps 761 mmHg 87%
    05:00 +7°C° 0.1 mm 2 mps 761 mmHg 85%
    06:00 +8°C° 0.1 mm 2 mps 760 mmHg 83%
    07:00 +8°C° 0 mm 2 mps 760 mmHg 79%
    08:00 +9°C° 0 mm 3 mps 759 mmHg 75%
    09:00 +9°C° 0 mm 3 mps 759 mmHg 71%
    10:00 +10°C° 0 mm 3 mps 758 mmHg 67%
    11:00 +12°C° 0 mm 2 mps 758 mmHg 64%
    12:00 +13°C° 0 mm 1 mps 757 mmHg 61%
    13:00 +12°C° 0.1 mm 2 mps 756 mmHg 65%
    14:00 +12°C° 0.1 mm 2 mps 756 mmHg 69%
    15:00 +10°C° 0.1 mm 3 mps 755 mmHg 72%
    16:00 +10°C° 0.3 mm 2 mps 755 mmHg 74%
    17:00 +10°C° 0.3 mm 2 mps 754 mmHg 75%
    18:00 +11°C° 0.3 mm 1 mps 754 mmHg 77%
    19:00 +10°C° 0.2 mm 1 mps 754 mmHg 78%
    20:00 +9°C° 0.2 mm 2 mps 753 mmHg 80%
    21:00 +9°C° 0.2 mm 2 mps 753 mmHg 82%
    22:00 +9°C° 0.2 mm 3 mps 753 mmHg 82%
    23:00 +9°C° 0.2 mm 3 mps 752 mmHg 83%
    Show more